Terug naar catalogus

COSMOS 1089

ActiefMilitairPO
NORAD 11308·PAYLOAD·🇷🇺 Russia

Gelanceerd Mar 21, 1979 vanaf Plesetsk Cosmodrome

Loading…

Volgende Passages (komende 24 uur)

TLE

VersSource: Space-Track

Epoch: Sep 14, 2026, 18:49 UTC

1 11308U 79026A   26257.78409024  .00000036  00000-0  21065-4 0  9990
2 11308  82.9709  88.9979 0023539 124.6546 246.0993 13.75425407381700

Volg COSMOS 1089 in realtime met AllMySat

Download on the App Store